Location: Occidental Observatory
(38.4214°N, 122.9202°W)
Time: 20:54:48
(UTC-07:00)

Daily predictions for brighter satellites

Satellite Brightness Start Highest point End
(mag) Time Altitude Azimuth Time Altitude Azimuth Time Altitude Azimuth
Cosmos 1943 4.2 20:48:05 10° SSE 20:52:42 26° ESE 20:57:21 10° NE
Cosmos 1939 Rocket 4.3 20:50:53 10° SE 20:54:14 24° ENE 20:57:35 10° NNE
Meteor 2-4 Rocket 4.0 20:49:27 10° S 20:55:20 83° W 21:01:18 10° N
H-2A R/B 2.8 20:52:16 10° SSE 20:56:12 82° E 21:00:11 10° N
Resurs 01 Rocket 4.3 21:00:02 10° SW 21:03:14 19° W 21:06:27 10° NW
SeaSat 1 3.8 21:15:38 10° ESE 21:19:38 26° NE 21:23:39 10° N
ISS -1.6 21:16:35 10° WSW 21:19:39 37° NNW 21:22:44 10° NE
USA 186 3.3 21:19:49 10° SSW 21:22:15 27° W 21:24:33 10° NW
COSMOS 2455 2.9 21:17:54 10° SSW 21:23:55 88° WNW 21:29:58 10° NNE
ALOS 3.3 21:19:57 10° S 21:24:24 45° W 21:28:55 10° NNW
Cosmos 1666 3.7 21:23:30 10° NNW 21:27:16 49° W 21:31:01 10° SSW
Centaur D AC-28 3.6 21:26:43 10° SW 21:28:58 14° SSW 21:31:03 10° SSE
Cosmos 1602 Rocket 4.0 21:27:25 10° SSW 21:31:51 65° W 21:36:18 10° N
CZ-2C R/B 2.0 21:33:18 10° SSW 21:35:23 32° W 21:37:29 10° NNW
Cosmos 1825 Rocket 4.1 21:31:36 11° SSE 21:35:35 40° E 21:39:45 10° NNE
CZ-4B R/B 4.2 21:31:03 10° NNE 21:35:43 34° E 21:39:52 13° SSE
Cosmos 2369 Rocket 2.6 21:31:26 10° NNW 21:36:55 48° ENE 21:41:02 17° SE
PSLV R/B 4.1 21:33:50 10° W 21:37:17 54° N 21:40:48 10° ENE
Cosmos 1190 Rocket 4.2 21:32:50 10° S 21:37:57 51° ESE 21:43:06 10° NNE
YAOGAN 6 3.9 21:40:59 18° ESE 21:42:45 26° ENE 21:45:56 10° NNE
Cosmos 1812 Rocket 3.6 21:40:06 10° N 21:44:30 80° W 21:48:48 11° S
H-2A R/B 4.0 21:45:29 10° E 21:47:57 14° ENE 21:50:30 10° NNE
CZ-4 SHROUD 3.2 21:46:21 22° SSE 21:48:13 71° ENE 21:51:21 10° N
SPOT 5 2.5 21:50:53 18° SSE 21:54:03 78° ENE 21:58:23 10° N
PSLV R/B 3.1 21:52:30 25° SSE 21:54:08 81° ENE 21:57:15 10° N
ATLAS 3B R/B 2.9 21:46:31 10° SSW 21:54:12 79° ESE 22:01:47 10° NE
Lacrosse 4 Rocket 1.2 21:50:50 10° SSW 21:54:51 78° ESE 21:58:57 10° NNE
H-2A R/B 2.9 21:50:55 10° S 21:55:02 47° W 21:59:17 10° NNW
Cosmos 676 Rocket 4.4 21:50:52 13° S 21:55:18 43° ESE 22:00:20 10° NNE
Terra 3.8 21:53:35 11° E 21:55:31 14° ENE 21:57:59 10° NNE
SPOT 1/Viking Rocket 4.1 21:53:34 21° SE 21:56:38 44° ENE 22:01:30 10° N
DEBRIS 2.9 21:53:39 10° WNW 21:57:40 41° SW 21:58:29 29° S
Cosmos 1515 3.9 21:53:52 10° SSW 21:57:42 71° W 22:01:34 10° N
UNK 4.2 21:56:41 10° NNE 22:02:13 77° ESE 22:08:02 10° S
ERS-1 Rocket 4.3 21:58:27 10° SSW 22:03:04 37° W 22:07:43 10° NNW
GEOS 3 Rocket 4.5 22:04:53 16° S 22:08:45 43° WSW 22:13:44 10° NW
Cosmos 2263 4.3 22:04:49 10° NNW 22:10:25 65° ENE 22:13:27 28° SE
USA 234 3.9 22:09:10 16° ESE 22:14:10 47° NE 22:20:25 10° NW
CZ-4C R/B 4.4 22:14:31 28° ESE 22:15:36 32° ENE 22:19:12 10° N
USA 245 4.1 22:13:45 26° SSE 22:17:06 71° ENE 22:22:01 10° N
COSMOS 2406 3.9 22:15:41 28° SE 22:17:23 34° ESE 22:22:29 10° NE
Cosmos 1066 Rocket 4.4 22:12:34 10° SSW 22:18:15 77° W 22:24:06 10° N
SL-27 R/B 3.2 22:18:59 33° E 22:18:59 33° E 22:21:31 10° NE
Envisat 3.7 22:14:39 15° S 22:18:44 51° W 22:23:41 10° NNW
MetOp-A 4.2 22:15:19 22° S 22:18:49 81° WSW 22:24:12 10° NNW
Cosmos 407 Rocket 3.6 22:17:23 10° SSW 22:22:39 77° WNW 22:27:53 10° NNE
Cosmos 1953 Rocket 3.6 22:20:36 20° SSW 22:23:39 77° W 22:28:07 10° N
Atlas Centaur 2 3.3 22:17:48 10° WSW 22:24:43 46° S 22:28:40 28° SE
Cosmos-2242 3.7 22:23:31 10° N 22:27:40 39° ENE 22:28:28 36° ESE
Cosmos 1943 Rocket 2.5 22:24:24 10° NNW 22:29:49 50° ENE 22:31:58 33° ESE
Meteor 1-22 Rocket 4.3 22:25:27 10° N 22:31:07 82° W 22:34:24 28° S
Cosmos 1953 3.2 22:28:15 10° NNE 22:31:53 33° ENE 22:32:04 33° E
Cosmos 1634 Rocket 4.2 22:26:19 10° NNW 22:32:27 68° W 22:36:42 21° S
SL-08 RB Rocket 3.6 22:35:39 45° SE 22:36:58 72° ENE 22:41:29 10° N
USA 238 DEB 3.7 22:32:29 10° SSW 22:39:31 68° ESE 22:46:32 10° NE
USA 238 3.7 22:32:36 10° SSW 22:39:37 68° ESE 22:46:38 10° NE
Cosmos 1346 Rocket 3.9 22:38:07 16° SW 22:40:50 40° WNW 22:44:34 10° N
Cosmos 1954 Rocket 4.0 22:40:07 22° SSW 22:43:40 87° WNW 22:49:00 10° NNE
Cosmos 1842 3.1 22:46:00 64° S 22:46:35 89° WNW 22:50:31 10° N
Cosmos 1607 4.0 22:45:38 31° S 22:48:30 58° ESE 22:54:35 10° NE
Cosmos 2279 Rocket 4.0 22:45:50 10° N 22:52:06 82° W 22:54:57 35° S
Cosmos 2208 Rocket 4.4 22:50:29 10° N 22:55:31 49° ENE 22:56:31 43° ESE
ISS 0.2 22:55:55 10° NNW 22:56:50 11° NNW 22:57:45 10° N
SeaSat 1 3.3 22:55:15 31° SSW 22:56:57 41° WSW 23:01:37 10° NW
CARTOSAT-1 3.5 22:59:20 62° E 22:59:37 63° ENE 23:03:54 10° N
CZ-4C R/B 3.3 23:02:16 26° E 23:02:16 26° E 23:05:43 10° NE
ARGOS 3.6 22:59:51 35° SSW 23:01:57 57° W 23:07:18 10° NNW
Cosmos 1741 Rocket 3.9 23:06:00 57° SSE 23:07:00 73° ESE 23:12:19 10° NNE
Geosat 3.9 23:07:02 10° NNE 23:12:06 84° WNW 23:13:49 43° SSW
NOSS 3-2 (C) 4.2 23:14:45 35° E 23:14:45 35° E 23:19:51 10° NE
PSLV R/B 4.5 23:11:34 10° WNW 23:14:01 41° WNW 23:14:01 41° WNW
Landsat 7 4.0 23:16:10 53° SW 23:16:54 60° W 23:21:37 10° NNW
Cosmos 1758 3.6 23:15:54 10° NNW 23:19:54 62° W 23:19:54 62° W
Cosmos 2369 Rocket 4.0 23:16:20 10° NW 23:20:32 22° W 23:22:51 17° SW
Cosmos 1850 Rocket 4.0 23:21:46 51° SW 23:23:03 77° WNW 23:28:17 10° NNE
IGS 5A 3.6 23:25:39 71° WNW 23:25:39 71° WNW 23:29:32 10° NNW
Cosmos 1340 4.0 23:27:27 34° NNE 23:27:27 34° NNE 23:29:47 10° NNE
H-2A R/B 2.0 23:26:07 60° SW 23:26:43 67° WSW 23:31:47 10° NNW
Cosmos 1570 Rocket 4.0 23:23:06 10° NNW 23:28:28 76° WSW 23:29:04 68° SSW
Cosmos 1140 Rocket 4.2 23:27:12 30° SW 23:29:32 51° WNW 23:34:39 10° N
Cosmos 1842 Rocket 3.6 23:25:34 10° N 23:29:43 77° NW 23:29:43 77° NW
Spot 4 3.7 23:30:13 79° SW 23:30:22 81° WSW 23:35:11 10° NNW
Meteor 2-5 Rocket 3.8 23:31:05 61° ESE 23:31:33 64° E 23:37:15 10° NNE
Terra 2.0 23:32:28 59° WSW 23:32:43 60° W 23:37:27 10° NNW
Cosmos 1544 4.1 23:30:16 10° N 23:32:59 46° N 23:32:59 46° N
Cosmos 2084 4.4 23:34:34 10° NW 23:37:48 39° W 23:37:48 39° W
Cosmos 1470 3.7 23:36:00 10° N 23:38:47 44° N 23:38:47 44° N
Meteor 1-16 Rocket 4.4 23:43:25 10° N 23:49:00 56° ENE 23:49:15 56° E
Lacrosse 5 4.4 23:47:49 10° NNW 23:50:58 16° NNE 23:54:07 10° ENE
